Temp
22 21 20 19 20 20 27 28 29 29 29 31 30 29 27 24 22 20 22 22 22 21 20 20 20 19 19 19 19 19 18 18 19 18 19 19 19 19 19 18 18 18 18 18 18 18 18 18 18
22 20 19 20 21 24 27 29 29 30 31 31 29 28 27 25 25 21 22 22 22 22 20 19 20 20 20 20 19 19 18 18 18 18 19 19 19 19 18 18 18 18 18 18 18 18 18 18 18
21 20 20 20 22 27 28 30 30 31 32 30 29 28 27 25 23 23 22 22 22 21 20 19 19 20 20 20 20 19 19 18 18 18 18 18 18 18 18 17 17 18 18 17 18 17 18 18 19
22 21 22 21 21 28 31 31 32 31 31 29 28 27 27 26 25 24 22 23 22 21 21 20 20 20 20 20 19 19 19 18 18 18 18 18 18 18 18 18 18 18 18 17 17 18 18 18 19
21 21 18 21 22 24 27 33 33 31 30 28 27 26 25 25 24 23 23 23 22 22 21 21 21 21 20 20 19 19 19 18 18 18 18 18 18 18 18 18 18 18 18 18 18 18 18 18 19
21 19 18 19 21 24 26 34 33 32 31 28 27 26 25 25 24 23 23 23 23 23 22 21 21 21 20 20 20 20 19 19 18 18 18 18 18 18 18 18 18 18 18 18 18 17 18 18 19
19 17 18 20 21 26 28 29 33 32 32 30 27 25 25 25 24 24 23 22 22 22 23 23 21 20 20 20 20 20 19 19 18 18 18 18 18 18 18 18 18 18 19 18 18 18 18 19 19
21 19 18 21 23 24 25 25 31 33 32 30 28 26 24 25 25 25 24 23 22 22 22 22 22 21 21 20 20 19 19 19 19 18 19 18 18 17 18 18 18 18 18 17 18 19 19 19 20
28 17 20 22 22 21 27 27 29 33 32 28 30 27 26 25 25 24 23 22 22 22 22 23 23 22 21 20 20 19 19 19 19 19 18 18 19 18 18 18 18 18 18 18 18 19 20 19 20
28 26 21 23 23 22 24 27 29 33 32 30 28 28 26 25 25 24 23 21 22 21 22 22 22 22 21 20 20 20 19 19 19 19 19 19 19 18 19 18 18 18 18 18 18 18 19 19 19
30 29 28 25 25 28 27 27 28 32 31 30 28 27 26 25 25 24 24 22 22 22 22 22 22 22 21 20 20 20 20 19 19 19 19 18 18 18 18 18 18 19 18 19 18 18 19 19 19
29 31 32 29 25 26 27 27 27 33 32 30 31 28 26 26 25 24 24 24 22 22 22 22 22 22 21 21 20 20 20 19 19 19 19 19 18 18 18 18 18 18 19 19 19 19 19 19 19
30 30 32 32 30 27 30 31 33 33 31 31 31 28 27 26 25 25 24 24 24 23 22 22 22 22 21 21 20 19 20 19 19 19 19 19 19 19 19 18 18 19 18 18 19 19 19 19 19
31 31 31 32 32 33 32 32 33 34 34 28 29 30 27 27 26 25 25 24 24 24 23 22 22 22 21 21 20 20 20 20 20 20 19 19 19 19 19 19 18 19 18 18 18 18 18 19 19
30 28 29 30 31 31 32 30 31 34 35 30 28 28 28 27 27 26 25 25 24 24 23 23 23 22 21 21 20 20 20 19 19 18 19 19 19 19 19 19 19 19 18 18 18 17 17 18 18
27 27 25 29 30 31 31 28 31 35 35 34 28 28 28 28 27 27 26 25 25 24 23 23 23 22 21 21 20 20 19 19 20 19 20 19 19 18 18 18 19 18 18 18 18 18 18 18 18
25 24 25 28 31 31 31 29 31 35 35 33 32 30 29 28 28 28 27 26 25 25 24 23 23 22 22 21 20 20 20 19 19 20 20 20 19 18 19 19 19 19 19 18 18 18 18 18 19
23 25 26 28 30 31 30 29 30 33 33 35 33 34 31 31 28 29 28 27 26 25 25 24 23 22 22 21 21 20 20 20 20 19 19 20 19 18 19 19 19 19 19 19 18 18 19 19 19
27 27 27 28 30 29 29 29 29 31 32 32 34 33 33 31 30 30 29 27 26 26 25 24 23 22 22 21 20 20 20 20 20 20 19 19 20 20 20 19 19 19 19 19 18 19 18 19 19
28 27 26 28 29 29 27 27 29 30 29 32 33 34 34 34 33 29 28 27 27 26 25 25 24 23 22 22 21 21 20 20 20 20 20 19 20 20 20 20 19 20 19 19 18 18 17 18 19
27 26 27 27 29 28 27 26 26 29 31 32 33 33 34 34 34 29 27 27 27 26 26 26 25 24 23 22 21 20 20 20 19 20 20 19 20 20 20 20 19 19 20 19 19 19 17 18 18
25 28 29 28 25 23 28 25 25 27 27 27 29 30 30 31 33 34 29 27 27 28 26 26 26 25 23 23 22 21 20 20 20 20 20 20 20 20 20 20 20 19 19 19 18 18 18 18 18
27 28 28 28 25 25 26 23 24 28 26 26 28 30 30 31 32 31 31 29 29 28 27 26 26 25 24 23 22 21 20 20 20 20 20 20 20 20 20 20 20 19 18 18 17 18 18 18 18
30 28 26 25 24 22 25 24 24 25 27 26 28 29 30 29 29 27 28 29 30 28 26 25 26 25 24 23 22 22 21 20 20 20 20 20 20 20 20 20 19 19 19 19 18 18 18 18 18
29 24 20 20 20 22 24 24 24 26 27 26 26 28 26 28 27 26 24 28 26 26 26 26 25 25 24 23 22 22 22 21 21 21 21 21 21 20 20 20 19 19 19 18 18 18 18 18 19
26 25 20 22 21 23 24 25 22 21 19 18 21 22 25 27 26 22 23 22 26 27 26 26 25 25 24 23 23 22 22 21 21 21 21 21 21 21 21 20 19 19 19 19 18 18 18 18 18
26 24 25 23 24 22 24 25 24 21 19 19 18 18 20 25 22 21 23 21 22 23 25 26 24 24 24 24 23 23 21 21 21 21 21 22 22 21 21 21 19 19 19 19 19 18 18 18 18
27 27 23 21 21 20 22 21 19 18 18 18 18 18 20 24 25 20 22 20 20 21 21 23 25 25 25 23 23 23 22 21 21 21 21 21 21 21 22 21 21 20 20 19 19 18 18 18 18
25 23 23 22 21 20 19 20 20 20 18 17 16 19 20 21 23 15 19 19 23 24 22 20 25 24 24 23 22 22 22 21 20 22 21 21 21 21 22 22 22 21 20 19 19 19 18 17 18
26 25 23 19 20 19 19 20 21 20 19 17 17 18 19 19 19 20 17 19 16 14 18 24 25 25 23 22 21 21 21 21 20 21 22 21 22 21 21 21 21 20 19 18 18 18 18 18 18
Height
1507 1507 1506 1507 1510 1503 1487 1485 1470 1472 1472 1469 1468 1473 1478 1479 1489 1506 1495 1500 1506 1510 1513 1516 1520 1523 1525 1527 1529 1530 1532 1534 1536 1538 1540 1543 1545 1546 1549 1551 1552 1553 1555 1557 1560 1561 1563 1564 1566
1506 1507 1508 1505 1510 1504 1491 1471 1476 1471 1470 1470 1473 1475 1479 1483 1484 1490 1496 1502 1506 1510 1513 1517 1520 1523 1526 1527 1529 1531 1532 1534 1537 1539 1540 1543 1546 1548 1550 1552 1553 1554 1556 1558 1560 1562 1563 1564 1566
1507 1506 1508 1502 1494 1488 1484 1468 1470 1471 1470 1472 1477 1477 1480 1487 1492 1496 1498 1501 1506 1512 1515 1518 1520 1523 1526 1528 1530 1531 1533 1535 1538 1540 1542 1544 1547 1548 1551 1553 1554 1555 1557 1558 1560 1562 1564 1565 1567
1503 1504 1505 1505 1517 1477 1462 1463 1465 1469 1474 1475 1478 1483 1485 1486 1489 1493 1500 1504 1507 1511 1516 1519 1521 1523 1525 1528 1530 1532 1534 1536 1539 1541 1542 1544 1547 1549 1551 1553 1554 1556 1557 1559 1561 1562 1564 1565 1568
1508 1510 1521 1522 1508 1485 1477 1461 1461 1470 1473 1480 1482 1489 1490 1490 1491 1495 1500 1504 1506 1511 1515 1518 1521 1523 1525 1527 1530 1532 1534 1536 1539 1541 1542 1545 1547 1550 1551 1553 1555 1556 1558 1560 1561 1562 1564 1566 1568
1511 1518 1530 1537 1513 1496 1481 1459 1461 1466 1472 1478 1484 1487 1493 1495 1497 1498 1501 1503 1507 1508 1513 1517 1520 1523 1525 1527 1530 1532 1534 1537 1539 1541 1544 1546 1548 1549 1552 1553 1555 1556 1558 1560 1561 1563 1564 1567 1569
1515 1525 1541 1531 1519 1499 1480 1467 1463 1460 1465 1471 1476 1486 1492 1493 1497 1500 1501 1503 1505 1510 1511 1515 1519 1522 1525 1528 1530 1533 1535 1537 1539 1541 1544 1546 1548 1550 1552 1553 1555 1556 1558 1560 1561 1563 1565 1567 1569
1508 1522 1542 1539 1522 1503 1480 1469 1466 1456 1462 1466 1469 1479 1486 1487 1492 1499 1501 1503 1506 1508 1511 1513 1517 1520 1523 1526 1529 1532 1535 1537 1539 1541 1543 1546 1549 1551 1553 1554 1555 1557 1559 1560 1562 1564 1566 1567 1570
1497 1523 1532 1524 1523 1508 1465 1479 1464 1459 1463 1467 1470 1472 1481 1486 1488 1495 1499 1501 1505 1507 1509 1511 1514 1518 1522 1525 1528 1531 1534 1537 1539 1542 1545 1547 1549 1550 1552 1555 1557 1557 1559 1560 1562 1564 1566 1568 1570
1494 1497 1514 1509 1501 1488 1473 1474 1472 1465 1465 1467 1468 1470 1480 1489 1490 1490 1496 1495 1499 1504 1507 1509 1512 1516 1520 1523 1527 1530 1532 1535 1539 1541 1544 1546 1548 1550 1551 1553 1556 1559 1560 1560 1562 1563 1566 1568 1570
1484 1487 1484 1482 1481 1474 1472 1470 1467 1462 1461 1460 1465 1472 1479 1487 1491 1492 1496 1497 1496 1499 1503 1507 1510 1514 1517 1521 1525 1528 1531 1534 1537 1540 1542 1545 1547 1549 1551 1554 1555 1558 1560 1561 1562 1563 1565 1567 1569
1484 1475 1472 1473 1477 1477 1472 1466 1467 1460 1456 1457 1457 1459 1467 1477 1487 1489 1493 1498 1497 1498 1499 1503 1507 1511 1515 1518 1523 1527 1531 1534 1536 1537 1540 1543 1546 1548 1551 1553 1556 1557 1559 1560 1561 1563 1565 1567 1569
1476 1473 1470 1469 1473 1473 1468 1462 1457 1454 1456 1454 1457 1465 1467 1467 1479 1487 1490 1495 1500 1498 1498 1500 1503 1507 1510 1514 1519 1524 1530 1537 1540 1540 1539 1540 1543 1547 1550 1553 1554 1556 1558 1559 1560 1561 1564 1566 1568
1472 1470 1469 1468 1466 1464 1462 1458 1456 1452 1449 1454 1454 1453 1463 1467 1474 1482 1484 1490 1495 1499 1498 1498 1501 1504 1507 1511 1516 1523 1531 1531 1535 1538 1539 1539 1540 1544 1548 1551 1553 1555 1557 1558 1559 1560 1562 1564 1567
1470 1471 1468 1467 1463 1458 1453 1456 1452 1446 1445 1449 1451 1458 1462 1467 1472 1474 1475 1481 1488 1493 1498 1496 1499 1504 1506 1509 1514 1521 1526 1527 1526 1535 1537 1537 1538 1541 1546 1549 1552 1553 1554 1556 1557 1558 1559 1561 1564
1474 1474 1483 1465 1459 1452 1452 1466 1441 1438 1439 1437 1446 1452 1459 1465 1464 1466 1471 1473 1479 1486 1491 1493 1496 1499 1504 1509 1512 1519 1524 1522 1525 1529 1533 1532 1534 1539 1543 1547 1550 1550 1550 1551 1553 1556 1557 1559 1562
1481 1492 1482 1466 1452 1449 1450 1456 1435 1432 1432 1437 1441 1446 1448 1455 1456 1459 1464 1466 1469 1474 1482 1487 1490 1494 1499 1505 1510 1515 1521 1521 1523 1527 1530 1531 1533 1536 1540 1542 1545 1546 1546 1548 1550 1552 1554 1556 1559
1494 1487 1474 1469 1452 1444 1447 1446 1437 1434 1436 1431 1436 1438 1443 1444 1448 1448 1455 1460 1463 1467 1474 1479 1485 1490 1495 1500 1506 1510 1514 1518 1521 1521 1524 1528 1531 1533 1536 1539 1540 1543 1543 1544 1546 1548 1550 1553 1557
1469 1472 1471 1459 1448 1448 1449 1443 1439 1432 1431 1432 1429 1431 1432 1435 1436 1439 1445 1452 1458 1463 1466 1471 1477 1483 1489 1493 1497 1502 1505 1511 1515 1518 1520 1523 1526 1529 1532 1533 1535 1537 1540 1542 1544 1545 1547 1550 1553
1462 1467 1467 1454 1445 1445 1447 1447 1437 1431 1428 1427 1427 1426 1427 1431 1433 1436 1441 1446 1450 1453 1458 1464 1468 1473 1480 1485 1490 1496 1501 1505 1510 1515 1518 1520 1523 1526 1528 1529 1529 1531 1534 1536 1538 1541 1543 1546 1548
1460 1465 1462 1460 1444 1440 1444 1452 1444 1429 1422 1420 1422 1424 1422 1425 1429 1431 1436 1439 1444 1449 1451 1455 1460 1465 1472 1480 1486 1492 1499 1504 1506 1509 1513 1515 1519 1521 1522 1524 1525 1527 1530 1532 1535 1535 1538 1541 1544
1473 1452 1450 1451 1463 1480 1445 1475 1452 1434 1432 1427 1424 1422 1422 1422 1425 1426 1428 1433 1435 1439 1444 1450 1454 1458 1464 1473 1478 1484 1489 1492 1496 1502 1507 1511 1514 1516 1518 1519 1521 1523 1526 1529 1531 1533 1533 1535 1539
1459 1449 1452 1450 1459 1462 1455 1473 1453 1431 1435 1429 1425 1423 1423 1422 1418 1426 1424 1419 1425 1431 1434 1440 1448 1453 1457 1465 1472 1478 1485 1490 1494 1498 1502 1505 1508 1511 1513 1515 1516 1519 1521 1523 1526 1529 1529 1530 1531
1444 1449 1452 1452 1460 1487 1453 1461 1458 1442 1433 1427 1420 1417 1418 1419 1414 1418 1419 1413 1415 1423 1429 1435 1442 1446 1450 1457 1465 1472 1478 1483 1488 1492 1497 1500 1503 1506 1508 1510 1511 1512 1513 1515 1516 1519 1524 1525 1527
1445 1463 1496 1499 1495 1488 1447 1456 1450 1429 1421 1422 1422 1421 1420 1414 1409 1422 1410 1406 1408 1413 1419 1425 1432 1437 1442 1448 1457 1465 1471 1477 1481 1486 1491 1495 1497 1500 1503 1505 1506 1506 1508 1508 1509 1514 1517 1519 1522
1454 1457 1493 1502 1499 1477 1446 1459 1464 1440 1434 1434 1428 1426 1422 1419 1422 1429 1420 1421 1402 1404 1411 1417 1423 1428 1432 1438 1446 1455 1463 1470 1477 1482 1486 1489 1491 1494 1498 1500 1501 1503 1505 1506 1506 1508 1511 1514 1515
1453 1464 1447 1468 1458 1471 1456 1443 1431 1439 1435 1434 1432 1424 1419 1421 1430 1423 1426 1424 1424 1430 1412 1414 1419 1426 1427 1429 1437 1446 1454 1462 1469 1477 1481 1485 1488 1490 1492 1494 1495 1497 1499 1501 1502 1503 1507 1509 1511
1449 1440 1464 1468 1490 1492 1468 1467 1472 1454 1445 1440 1428 1423 1423 1419 1419 1416 1421 1425 1424 1421 1428 1428 1420 1419 1422 1428 1434 1442 1448 1455 1463 1472 1475 1480 1483 1486 1488 1490 1492 1492 1493 1495 1498 1500 1502 1503 1506
1455 1458 1456 1459 1470 1491 1492 1475 1453 1452 1448 1443 1437 1431 1428 1426 1421 1426 1431 1424 1414 1414 1426 1431 1422 1419 1422 1427 1433 1440 1446 1451 1458 1466 1471 1475 1480 1483 1485 1487 1489 1490 1491 1493 1494 1495 1498 1499 1500
1450 1453 1458 1485 1483 1475 1477 1475 1445 1443 1445 1445 1441 1436 1434 1437 1427 1426 1429 1425 1444 1436 1428 1417 1417 1413 1418 1423 1433 1439 1446 1452 1455 1459 1465 1470 1474 1477 1480 1483 1486 1489 1492 1493 1495 1494 1495 1497 1497
Wind_Speed
12 2 3 4 2 3 7 7 5 7 5 8 16 18 11 16 8 4 31 29 21 32 29 26 23 22 19 18 17 16 15 16 15 15 14 15 15 14 14 12 13 14 15 14 14 13 11 9 10
5 3 5 6 4 2 3 8 8 7 11 25 26 27 20 17 24 33 33 23 22 31 30 27 23 22 20 17 16 15 15 15 14 13 14 14 13 13 13 12 13 14 14 14 13 11 10 11 14
4 4 4 3 3 4 5 8 11 13 19 25 14 20 15 24 35 24 30 25 27 31 29 26 23 20 19 18 17 15 16 16 15 14 14 14 13 13 13 12 13 14 12 14 13 12 10 13 14
1 2 4 8 22 17 7 12 16 13 23 27 23 8 24 33 24 26 28 18 27 30 28 25 23 20 18 17 17 16 16 16 14 14 15 14 14 14 13 12 12 13 13 11 12 11 10 11 15
3 7 5 8 8 8 16 15 25 13 22 28 26 19 23 23 30 33 26 17 20 24 26 25 23 21 19 17 15 15 15 16 15 14 14 14 14 13 12 12 11 12 13 10 12 11 11 13 17
6 5 6 10 17 18 21 14 25 20 23 28 23 19 20 29 34 30 22 20 21 24 20 21 22 21 19 17 16 14 15 16 15 14 13 13 12 13 12 12 12 11 13 12 11 13 13 13 16
12 4 3 9 13 19 18 21 14 17 20 19 31 11 20 29 30 30 27 33 25 26 23 20 20 21 19 18 17 15 15 15 15 14 13 14 13 13 13 12 12 11 14 13 12 13 12 13 16
16 4 7 9 12 12 21 18 22 24 16 34 32 8 19 34 32 28 22 28 33 29 22 22 22 23 22 20 17 16 15 15 16 16 13 12 13 12 12 12 12 11 14 12 11 12 11 15 17
22 6 11 10 4 17 48 10 30 24 25 28 9 22 33 35 36 32 28 32 30 27 22 22 23 24 23 21 19 17 15 14 14 14 14 13 11 12 11 10 10 9 12 13 11 13 14 16 15
13 9 11 5 18 17 40 25 34 3 20 17 27 30 36 35 36 38 36 39 31 27 24 18 27 25 24 22 21 19 18 16 15 14 14 13 13 10 10 10 10 8 9 13 13 13 15 14 13
19 13 13 21 25 24 21 28 36 6 13 23 28 34 37 35 34 36 34 34 32 25 22 18 20 22 23 23 22 20 19 17 15 14 12 13 13 13 12 10 9 8 10 12 15 15 15 16 15
10 20 19 14 34 12 17 24 24 2 11 26 22 42 41 40 35 37 36 34 27 27 21 21 19 17 19 20 20 13 18 18 16 17 15 16 13 13 12 11 8 7 10 11 15 14 16 18 17
9 11 22 27 16 34 27 15 17 22 13 26 18 36 42 43 38 36 34 33 32 27 28 26 22 20 20 21 19 13 17 14 12 12 15 18 15 13 12 12 10 7 7 10 13 10 14 17 18
18 23 20 25 26 27 18 18 23 27 21 25 26 45 41 41 40 39 35 35 35 33 27 29 25 24 21 21 23 19 15 12 11 15 16 19 17 14 12 10 10 10 8 10 14 15 12 11 17
22 13 14 15 23 22 31 14 10 27 24 23 29 39 38 41 42 43 39 40 37 37 35 33 30 28 25 22 25 21 18 21 25 23 20 19 17 17 15 14 14 12 10 11 14 19 17 18 16
12 8 11 13 16 27 18 14 16 23 23 22 39 47 40 43 45 43 42 41 40 38 38 35 34 32 30 26 30 29 28 23 23 22 22 26 24 21 23 19 19 16 15 14 14 22 21 21 21
6 10 14 19 18 14 9 11 10 23 23 16 35 40 48 45 48 45 47 44 44 41 39 42 39 37 34 30 34 33 34 27 20 21 24 17 29 27 26 26 23 20 18 16 15 17 24 24 24
8 10 12 16 18 19 16 11 11 24 21 10 23 10 35 34 52 50 51 47 46 45 41 41 43 39 36 32 35 36 34 33 28 21 19 25 22 24 25 26 24 23 17 17 18 16 19 24 23
15 16 17 13 13 14 14 12 12 15 17 16 21 24 33 42 50 54 52 51 48 47 45 43 44 43 39 38 39 40 40 38 36 29 21 21 21 22 20 22 26 24 20 19 21 17 16 18 21
16 12 11 12 11 9 9 10 11 12 11 18 18 20 12 18 19 50 55 54 51 52 49 47 43 43 41 39 38 39 37 35 33 34 29 27 24 22 22 20 21 25 24 18 21 22 20 19 19
7 7 9 15 7 8 7 8 9 12 20 26 27 25 25 22 18 37 51 56 53 54 54 49 47 44 44 40 37 36 32 29 29 30 32 29 28 26 24 22 20 23 24 24 24 23 25 25 22
7 9 13 14 8 4 4 13 7 7 6 7 16 24 25 19 17 20 42 57 57 55 56 52 47 45 46 42 40 39 39 36 34 30 30 30 27 27 26 24 20 21 24 24 25 25 26 24 24
6 9 8 8 9 4 16 2 8 2 6 6 6 17 22 31 9 27 33 54 59 58 59 57 50 47 48 46 43 40 38 35 30 28 25 29 28 28 26 23 22 18 20 22 22 25 28 31 29
7 7 9 7 5 4 17 5 6 4 6 6 7 20 13 22 28 39 46 51 61 62 59 57 53 51 48 48 45 42 38 36 33 30 29 29 29 28 29 26 23 24 20 20 24 25 26 26 27
5 6 5 6 5 6 6 1 6 4 6 7 7 15 19 23 40 44 39 51 56 60 60 58 57 54 50 48 46 44 42 39 35 33 29 28 31 30 28 27 23 24 28 20 29 27 26 26 25
7 5 4 7 6 10 8 8 8 13 28 29 29 27 18 15 39 33 39 16 55 63 62 59 58 56 52 49 47 46 44 40 37 30 31 30 29 27 23 24 23 21 20 24 21 23 25 25 24
7 5 9 5 8 6 3 6 7 16 16 17 15 20 29 35 30 24 31 13 9 12 54 56 56 54 53 50 47 46 48 43 40 35 33 32 30 26 23 17 17 18 22 23 22 23 25 24 24
7 8 4 4 5 6 5 4 3 7 8 6 12 19 24 32 33 27 22 24 11 9 16 44 51 51 51 48 45 45 48 46 42 38 35 34 33 28 25 17 16 18 19 21 21 21 21 21 22
12 5 5 1 3 2 4 3 7 1 4 9 9 13 16 15 29 31 19 8 2 13 31 36 52 49 48 46 44 40 42 47 41 38 38 34 29 29 26 20 16 20 19 18 18 18 19 22 21
7 3 3 4 6 3 3 3 7 6 5 2 18 27 30 24 21 20 24 21 8 20 44 41 54 49 48 44 40 37 37 42 38 38 40 41 34 29 26 23 19 16 17 16 17 18 17 18 20
Wind_Direction
316 301 310 299 294 220 91 58 82 94 73 94 89 88 119 148 168 178 154 167 170 166 162 158 154 149 151 150 152 150 149 143 139 132 125 133 130 127 127 127 131 137 143 148 153 146 142 149 148
285 278 279 290 261 244 105 126 97 57 125 80 87 86 85 89 115 128 150 168 164 165 162 161 157 152 152 151 152 152 150 148 143 138 135 138 139 137 131 129 128 131 141 145 147 147 136 127 129
193 216 275 209 227 150 124 126 113 81 85 101 63 73 107 112 124 141 155 156 160 162 164 162 159 156 153 152 152 155 153 152 152 148 143 141 141 138 136 135 128 129 133 145 148 145 138 136 125
68 276 246 350 341 295 115 121 121 116 81 103 99 68 116 133 138 151 153 148 151 161 162 162 160 159 155 152 151 154 153 155 155 155 152 155 148 147 143 139 135 140 137 142 145 151 157 145 132
285 23 58 315 320 279 317 124 118 101 104 98 103 97 87 125 134 148 152 147 149 146 158 161 161 162 160 156 154 154 155 160 162 157 156 158 156 154 151 146 144 141 144 149 160 160 152 143 134
74 59 42 337 300 311 299 142 125 129 119 117 115 105 116 132 140 155 156 159 150 134 148 162 164 165 165 160 160 156 157 158 157 158 159 157 157 159 159 154 150 144 157 146 141 141 150 143 141
105 72 23 268 287 314 332 321 124 132 135 138 133 127 139 144 149 156 163 163 166 161 154 161 172 172 171 167 162 163 162 162 160 163 166 164 162 163 165 158 158 149 153 154 151 159 157 151 146
123 108 143 251 330 318 314 320 294 136 129 143 141 151 163 156 154 157 168 179 173 177 177 171 178 179 176 172 169 167 166 165 167 166 166 163 168 165 165 162 163 157 160 161 157 160 161 153 147
251 112 185 197 29 330 307 300 307 131 109 70 154 149 161 158 157 157 164 168 175 177 176 175 184 182 179 177 174 172 171 169 170 167 169 162 169 168 166 170 170 166 171 171 167 168 158 152 145
231 244 213 160 181 183 246 290 299 179 115 104 101 137 156 160 164 163 165 170 177 178 172 178 185 183 180 180 180 180 177 175 176 176 173 169 166 162 164 172 166 181 181 180 174 174 172 165 152
268 270 153 203 197 211 234 250 275 321 160 154 133 145 155 165 170 171 174 181 182 183 177 171 171 189 184 183 184 187 185 178 177 179 174 176 176 172 168 167 187 195 201 192 184 184 179 168 159
273 279 287 207 211 239 250 263 265 264 215 164 163 160 164 169 179 179 180 184 184 183 195 185 180 181 187 195 179 191 199 187 182 180 181 190 187 182 191 195 202 209 218 208 202 195 185 174 165
286 298 318 322 230 217 250 270 305 313 175 182 171 169 170 172 181 187 183 190 189 187 195 198 194 195 192 197 181 198 188 181 187 192 190 182 185 185 198 190 220 219 197 212 185 190 199 195 192
305 306 309 313 294 283 270 266 272 286 298 192 187 177 174 178 184 188 185 193 193 195 196 207 207 204 198 198 186 188 172 169 192 204 210 193 181 189 204 205 237 230 214 232 217 186 168 181 186
310 314 313 309 305 299 290 295 255 253 262 198 184 173 172 184 187 191 189 193 196 196 196 208 211 208 205 205 194 192 184 188 202 209 207 202 207 196 208 211 228 239 233 239 222 211 208 211 209
302 312 301 276 271 273 270 271 273 250 241 254 168 174 178 188 189 192 195 194 197 198 196 208 212 212 211 204 195 194 187 204 207 203 206 206 192 195 206 208 216 225 235 233 226 215 212 209 212
314 285 275 281 273 273 268 276 287 301 233 169 168 181 181 187 191 193 198 196 198 201 198 203 211 214 216 212 199 199 194 203 204 207 205 201 196 198 208 213 217 224 232 226 222 215 214 213 211
263 276 288 298 304 309 305 303 310 314 316 220 182 198 178 210 194 196 199 198 199 202 202 203 209 216 219 219 209 210 206 207 205 209 216 218 209 207 224 223 224 224 229 241 208 207 212 218 218
254 262 273 286 297 301 297 294 297 300 308 308 261 195 201 197 200 199 199 196 198 202 202 203 207 214 215 216 213 210 213 208 209 200 213 223 229 228 227 229 235 227 227 232 228 210 218 222 222
249 260 276 277 280 285 298 299 300 299 286 286 286 289 258 224 209 194 193 193 199 203 205 204 209 213 214 212 212 214 211 211 209 207 207 222 228 229 233 238 240 229 227 230 223 219 227 228 219
279 302 296 299 271 301 316 309 286 281 285 284 289 304 279 277 253 189 185 193 199 203 206 208 209 214 216 213 212 213 214 216 216 211 208 216 226 231 236 246 247 234 223 219 221 217 226 228 220
295 293 322 321 358 290 320 293 290 270 329 4 346 338 336 324 290 224 196 193 198 210 210 207 211 213 216 214 214 211 209 208 213 213 210 213 223 230 236 242 248 236 231 229 225 226 230 228 229
286 319 317 304 296 320 286 270 280 2 315 287 309 305 314 308 305 334 226 206 204 209 209 209 210 213 216 215 216 213 211 214 215 215 211 216 222 231 241 247 246 234 230 237 240 235 233 235 237
259 270 285 285 268 300 267 172 270 298 266 282 277 297 293 331 341 338 333 213 206 206 207 208 207 212 216 216 215 215 211 210 210 218 215 220 223 231 238 242 240 232 226 239 241 233 240 238 238
304 2 324 336 350 267 321 323 226 266 282 235 298 329 358 350 348 349 344 201 189 196 207 210 206 211 214 216 214 216 215 211 213 212 216 217 220 225 232 237 239 244 240 251 221 225 233 241 239
274 187 189 276 284 284 316 279 15 28 49 45 38 20 360 350 337 342 348 314 190 201 206 211 209 209 212 214 214 215 215 214 212 213 214 220 223 230 240 247 247 238 235 220 222 226 230 234 235
298 301 230 266 283 290 254 337 17 13 23 12 23 35 11 354 354 354 344 323 230 213 202 213 212 212 215 216 215 211 215 215 212 210 216 221 225 230 238 251 255 223 215 222 225 230 236 235 231
346 299 4 336 339 310 342 107 244 335 349 327 2 357 9 356 349 15 1 336 287 280 250 220 219 216 218 219 218 215 214 215 216 208 214 221 225 230 235 233 229 208 207 211 219 224 229 230 236
328 343 3 48 102 229 319 311 139 270 337 326 324 347 5 16 357 44 52 320 235 290 287 256 222 221 220 220 220 219 215 215 218 215 214 222 223 229 229 222 221 214 213 214 222 234 236 236 236
293 48 98 112 289 239 188 262 139 117 55 328 304 320 335 352 12 347 25 42 209 253 282 237 224 223 223 218 216 218 220 215 216 221 221 224 227 223 226 223 224 215 215 222 233 234 232 239 240